Location: Kaarina
(60.4167°N, 22.4167°E)
Time: 18:54:14
(UTC+03:00)

APEX - Pass Details

Date: 24 August 2019
Orbit: 332 x 1130 km, 69.9° (Epoch: 23 September)

Event Time Altitude Azimuth Distance (km) Brightness Sun altitude
Rises 22:51:06 0° 316° (NW) 3,622 9.7 -11.7°
Reaches altitude 10° 22:53:54 10° 316° (NW) 2,553 8.2 -12.0°
Maximum altitude 22:59:45 86° 230° (SW) 750 3.9 -12.4°
Enters shadow 23:03:07 19° 142° (SE) 1,549 4.9 -12.7°
